timestamp,surface_pressure_avg,surface_temp_avg,battery_voltage,lat,long
2019-12-31 00:09:01+00:00,286.2947,1.88,12.81,47.84626,-54.09684
2019-12-31 00:19:01+00:00,284.7614,1.8,12.73,47.84626,-54.09684
2019-12-31 00:29:01+00:00,285.7381,1.8,12.73,47.84626,-54.09684
2019-12-31 00:39:01+00:00,290.1746,1.8,12.73,47.84626,-54.09684
2019-12-31 00:49:01+00:00,296.5947,1.8,12.73,47.84626,-54.09684
2019-12-31 00:59:01+00:00,298.7847,1.8,12.73,47.84626,-54.09684
2019-12-31 01:09:01+00:00,303.2047,1.8,12.73,47.84626,-54.09684
2019-12-31 01:19:01+00:00,310.2363,1.8,12.73,47.84626,-54.09684
2019-12-31 01:29:01+00:00,317.623,1.8,12.73,47.84626,-54.09684
2019-12-31 01:39:01+00:00,321.2863,1.8,12.73,47.84626,-54.09684
2019-12-31 01:49:01+00:00,322.173,1.8,12.73,47.84626,-54.09684
2019-12-31 01:59:01+00:00,322.4929,1.8,12.73,47.84626,-54.09684
2019-12-31 02:09:01+00:00,324.5529,1.8,12.73,47.84626,-54.09684
2019-12-31 02:19:01+00:00,326.6362,1.8,12.73,47.84626,-54.09684
2019-12-31 02:29:01+00:00,328.3547,1.8,12.73,47.84626,-54.09684
2019-12-31 02:39:01+00:00,331.5413,1.8,12.73,47.84626,-54.09684
2019-12-31 02:49:01+00:00,335.7630000000001,1.8,12.73,47.84626,-54.09684
2019-12-31 02:59:01+00:00,337.2163,1.8,12.73,47.84626,-54.09684
2019-12-31 03:09:01+00:00,336.8730000000001,1.8,12.73,47.84626,-54.09684
2019-12-31 03:19:01+00:00,339.4246,1.73,12.73,47.84626,-54.09684
2019-12-31 03:29:01+00:00,342.4462,1.74,12.73,47.84626,-54.09684
2019-12-31 03:39:01+00:00,345.4547,1.77,12.73,47.84626,-54.09684
2019-12-31 03:49:01+00:00,345.3745,1.75,12.73,47.84626,-54.09684
2019-12-31 03:59:01+00:00,343.8647,1.73,12.73,47.84626,-54.09684
2019-12-31 04:09:01+00:00,339.3978,1.7,12.73,47.84626,-54.09684
2019-12-31 04:19:01+00:00,338.5146,1.77,12.73,47.84626,-54.09684
2019-12-31 04:29:01+00:00,340.3163,1.8,12.73,47.84626,-54.09684
2019-12-31 04:39:01+00:00,334.5164,1.8,12.73,47.84626,-54.09684
2019-12-31 04:49:01+00:00,324.5764,1.8,12.73,47.84626,-54.09684
2019-12-31 04:59:01+00:00,322.0814,1.8,12.73,47.84626,-54.09684
2019-12-31 05:09:01+00:00,321.683,1.8,12.73,47.84626,-54.09684
2019-12-31 05:19:01+00:00,313.4497,1.8,12.65,47.84626,-54.09684
2019-12-31 05:29:01+00:00,302.8264,1.8,12.65,47.84626,-54.09684
2019-12-31 05:39:01+00:00,303.3214,1.8,12.65,47.84626,-54.09684
2019-12-31 05:49:01+00:00,299.2396,1.8,12.65,47.84626,-54.09684
2019-12-31 05:59:01+00:00,287.3231,1.8,12.65,47.84626,-54.09684
2019-12-31 06:09:01+00:00,276.763,1.8,12.65,47.84626,-54.09684
2019-12-31 06:19:01+00:00,274.438,1.8,12.65,47.84626,-54.09684
2019-12-31 06:29:01+00:00,269.9731,1.8,12.65,47.84626,-54.09684
2019-12-31 06:39:01+00:00,260.1431,1.8,12.65,47.84626,-54.09684
2019-12-31 06:49:01+00:00,251.3597,1.8,12.65,47.84626,-54.09684
2019-12-31 06:59:01+00:00,247.0764,1.8,12.65,47.84626,-54.09684
2019-12-31 07:09:01+00:00,241.4848,1.8,12.65,47.84626,-54.09684
2019-12-31 07:19:01+00:00,234.4414,1.8,12.65,47.84626,-54.09684
2019-12-31 07:29:01+00:00,231.3997,1.8,12.65,47.84626,-54.09684
2019-12-31 07:39:01+00:00,229.7914,1.8,12.65,47.84626,-54.09684
2019-12-31 07:49:01+00:00,226.1747,1.8,12.65,47.84626,-54.09684
2019-12-31 07:59:01+00:00,223.6214,1.8,12.65,47.84626,-54.09684
2019-12-31 08:09:01+00:00,220.3914,1.7,12.65,47.84626,-54.09684
2019-12-31 08:19:01+00:00,219.8565,1.7,12.65,47.84626,-54.09684
2019-12-31 08:29:01+00:00,218.9514,1.73,12.65,47.84626,-54.09684
2019-12-31 08:39:01+00:00,217.3297,1.75,12.65,47.84626,-54.09684
2019-12-31 08:49:01+00:00,216.3947,1.74,12.65,47.84626,-54.09684
2019-12-31 08:59:01+00:00,218.5481,1.74,12.65,47.84626,-54.09684
2019-12-31 09:09:01+00:00,219.2181,1.77,12.65,47.84626,-54.09684
2019-12-31 09:19:01+00:00,223.8831,1.79,12.65,47.84626,-54.09684
2019-12-31 09:29:01+00:00,228.9648,1.79,12.65,47.84626,-54.09684
2019-12-31 09:39:01+00:00,228.6915,1.7,12.65,47.84626,-54.09684
2019-12-31 09:49:01+00:00,229.9814,1.7,12.65,47.84626,-54.09684
2019-12-31 09:59:01+00:00,236.2181,1.79,12.65,47.84626,-54.09684
2019-12-31 10:09:01+00:00,241.3047,1.8,12.65,47.84626,-54.09684
2019-12-31 10:19:01+00:00,238.9665,1.7,12.65,47.84626,-54.09684
2019-12-31 10:29:01+00:00,239.5714,1.7,12.65,47.84626,-54.09684
2019-12-31 10:39:01+00:00,244.9865,1.7,12.65,47.84626,-54.09684
2019-12-31 10:49:01+00:00,249.2731,1.7,12.65,47.84626,-54.09684
2019-12-31 10:59:01+00:00,248.2147,1.7,12.65,47.84626,-54.09684
2019-12-31 11:09:01+00:00,248.623,1.7,12.65,47.84626,-54.09684
2019-12-31 11:19:01+00:00,250.5198,1.7,12.65,47.84626,-54.09684
2019-12-31 11:29:01+00:00,256.6947,1.73,12.65,47.84626,-54.09684
2019-12-31 11:39:01+00:00,260.2931,1.8,12.65,47.84626,-54.09684
2019-12-31 11:49:01+00:00,265.8431,1.8,12.65,47.84626,-54.09684
2019-12-31 11:59:01+00:00,272.683,1.79,12.65,47.84626,-54.09684
2019-12-31 12:09:01+00:00,281.1914,1.79,12.65,47.84626,-54.09684
2019-12-31 12:19:01+00:00,285.5364,1.76,12.65,47.84626,-54.09684
2019-12-31 12:29:01+00:00,287.6013,1.73,12.65,47.84626,-54.09684
2019-12-31 12:39:01+00:00,291.0614,1.73,12.65,47.84626,-54.09684
2019-12-31 12:49:01+00:00,299.1213,1.73,12.65,47.84626,-54.09684
2019-12-31 12:59:01+00:00,302.2363,1.74,12.65,47.84626,-54.09684
2019-12-31 13:09:01+00:00,302.9764,1.74,12.65,47.84626,-54.09684
2019-12-31 13:19:01+00:00,308.6464,1.76,12.73,47.84626,-54.09684
2019-12-31 13:29:01+00:00,315.698,1.76,12.73,47.84626,-54.09684
2019-12-31 13:39:01+00:00,323.6397,1.77,12.73,47.84626,-54.09684
2019-12-31 13:49:01+00:00,329.9496,1.77,12.73,47.84626,-54.09684
2019-12-31 13:59:01+00:00,335.5897,1.77,12.73,47.84626,-54.09684
2019-12-31 14:09:01+00:00,341.1813,1.79,12.73,47.84626,-54.09684
2019-12-31 14:19:01+00:00,348.5696,1.8,13.29,47.84626,-54.09684
2019-12-31 14:29:01+00:00,353.3198,1.9,13.29,47.84626,-54.09684
2019-12-31 14:39:01+00:00,352.5329,1.99,13.29,47.84626,-54.09684
2019-12-31 14:49:01+00:00,350.9246,2.03,13.29,47.84626,-54.09684
2019-12-31 14:59:01+00:00,349.7529,2.09,13.29,47.84626,-54.09684
2019-12-31 15:09:01+00:00,346.2598,2.1,13.29,47.84626,-54.09684
2019-12-31 15:19:01+00:00,345.0113,2.1,13.29,47.84626,-54.09684
2019-12-31 15:29:01+00:00,349.6046,2.1,13.29,47.84626,-54.09684
2019-12-31 15:39:01+00:00,352.6511,2.09,13.29,47.84626,-54.09684
2019-12-31 15:49:01+00:00,353.4547,2.1,13.29,47.84626,-54.09684
2019-12-31 15:59:01+00:00,355.4913,2.1,13.29,47.84626,-54.09684
2019-12-31 16:09:01+00:00,353.7247,2.1,13.29,47.84626,-54.09684
2019-12-31 16:19:01+00:00,350.3663,2.08,13.53,47.84626,-54.09684
2019-12-31 16:29:01+00:00,345.9097,2.06,13.53,47.84626,-54.09684
2019-12-31 16:39:01+00:00,340.6847,2.04,13.53,47.84626,-54.09684
2019-12-31 16:49:01+00:00,331.6063,2.02,13.53,47.84626,-54.09684
2019-12-31 16:59:01+00:00,324.2796,2.02,13.53,47.84626,-54.09684
2019-12-31 17:09:01+00:00,318.4981,2.0,13.53,47.84626,-54.09684
2019-12-31 17:19:01+00:00,312.1163,2.0,13.68,47.84626,-54.09684
2019-12-31 17:29:01+00:00,303.2314,2.01,13.68,47.84626,-54.09684
2019-12-31 17:39:01+00:00,301.2512,2.0,13.68,47.84626,-54.09684
2019-12-31 17:49:01+00:00,300.4447,2.0,13.68,47.84626,-54.09684
2019-12-31 17:59:01+00:00,295.0646,2.01,13.68,47.84626,-54.09684
2019-12-31 18:09:01+00:00,291.5714,2.05,13.68,47.84626,-54.09684
2019-12-31 18:19:01+00:00,288.353,2.07,13.37,47.84626,-54.09684
2019-12-31 18:29:01+00:00,276.2748,2.09,13.37,47.84626,-54.09684
2019-12-31 18:39:01+00:00,261.8797,2.1,13.37,47.84626,-54.09684
2019-12-31 18:49:01+00:00,253.1598,2.1,13.37,47.84626,-54.09684
2019-12-31 18:59:01+00:00,245.6281,2.1,13.37,47.84626,-54.09684
2019-12-31 19:09:01+00:00,237.0681,2.1,13.37,47.84626,-54.09684
2019-12-31 19:19:01+00:00,230.9881,2.1,13.13,47.84626,-54.09684
2019-12-31 19:29:01+00:00,223.2781,2.1,13.13,47.84626,-54.09684
2019-12-31 19:39:01+00:00,214.4281,2.1,13.13,47.84626,-54.09684
2019-12-31 19:49:01+00:00,209.1498,2.1,13.13,47.84626,-54.09684
2019-12-31 19:59:01+00:00,207.3748,2.09,13.13,47.84626,-54.09684
2019-12-31 20:09:01+00:00,202.4514,2.09,13.13,47.84626,-54.09684
2019-12-31 20:19:01+00:00,194.9948,2.09,12.89,47.84626,-54.09684
2019-12-31 20:29:01+00:00,190.9399,2.07,12.89,47.84626,-54.09684
2019-12-31 20:39:01+00:00,189.4681,2.07,12.89,47.84626,-54.09684
2019-12-31 20:49:01+00:00,185.4198,2.05,12.89,47.84626,-54.09684
2019-12-31 20:59:01+00:00,183.3182,2.0,12.89,47.84626,-54.09684
2019-12-31 21:09:01+00:00,187.7181,2.0,12.89,47.84626,-54.09684
2019-12-31 21:19:01+00:00,194.3631,2.0,12.81,47.84626,-54.09684
2019-12-31 21:29:01+00:00,201.9715,2.0,12.81,47.84626,-54.09684
2019-12-31 21:39:01+00:00,208.0881,2.0,12.81,47.84626,-54.09684
2019-12-31 21:49:01+00:00,214.5531,2.0,12.81,47.84626,-54.09684
2019-12-31 21:59:01+00:00,220.9731,2.0,12.81,47.84626,-54.09684
2019-12-31 22:09:01+00:00,227.6264,2.0,12.81,47.84626,-54.09684
2019-12-31 22:19:01+00:00,231.3114,2.0,12.81,47.84626,-54.09684
2019-12-31 22:29:01+00:00,232.5665,2.0,12.81,47.84626,-54.09684
2019-12-31 22:39:01+00:00,231.5514,2.0,12.81,47.84626,-54.09684
2019-12-31 22:49:01+00:00,229.9531,2.0,12.81,47.84626,-54.09684
2019-12-31 22:59:01+00:00,227.3765,1.99,12.81,47.84626,-54.09684
2019-12-31 23:09:01+00:00,231.5331,1.99,12.81,47.84626,-54.09684
2019-12-31 23:19:01+00:00,239.8531,2.0,12.81,47.84626,-54.09684
2019-12-31 23:29:01+00:00,243.1014,2.0,12.81,47.84626,-54.09684
2019-12-31 23:39:01+00:00,244.163,2.0,12.81,47.84626,-54.09684
2019-12-31 23:49:01+00:00,248.4198,2.0,12.81,47.84626,-54.09684
2019-12-31 23:59:01+00:00,253.3914,2.0,12.81,47.84626,-54.09684
